Regional Weather Roundup
Issued by NWS

Home | Current Version | Previous Version | Graphics & Text | Print | Product List | Glossary On
Versions: 1 2 3 4 5 6 7 8 9 10 11 12 13 14 15 16 17 18 19 20 21 22 23 24 25 26 27 28 29 30 31 32 33 34 35 36 37 38 39 40 41 42 43 44 45 46 47 48 49 50
000
ASUS43 KLOT 200510
RWRIL

ILLINOIS REGIONAL WEATHER ROUNDUP
NATIONAL WEATHER SERVICE CHICAGO/ROMEOVILLE IL
1100 PM CST FRI DEC 19 2014

NOTE: "FAIR" INDICATES FEW OR NO CLOUDS BELOW 12,000 FEET WITH NO
SIGNIFICANT WEATHER AND/OR OBSTRUCTIONS TO VISIBILITY.

* THESE STATIONS ARE NOT UNDER NWS QUALITY CONTROL. THEY ALSO MAY NOT
  REPORT WEATHER SUCH AS PRECIPITATION OR FOG.

ILZ001-002-007-009-015-016-024-200600-
NORTHWEST ILLINOIS

CITY           SKY/WX    TMP DP  RH WIND       PRES   REMARKS
MOLINE         CLOUDY    29  23  78 E3        30.27R
STERLING*      MOCLDY    27  21  80 CALM      30.26S
SAVANNA*       MOCLDY    27  23  87 CALM      30.27S
$$

ILZ003-004-008-010-011-017-018-200600-
NORTH CENTRAL ILLINOIS

CITY           SKY/WX    TMP DP  RH WIND       PRES   REMARKS
ROCKFORD       MOCLDY    26  21  81 CALM      30.28S
FREEPORT*      CLOUDY    25  23  91 CALM      30.28R
ROCHELLE*      MOCLDY    23  22  94 CALM      30.27R FOG
DE KALB*       MOCLDY    22  20  92 E3        30.26R FOG
PERU*          CLOUDY    30  26  85 E3        30.27S
$$

ILZ005-006-012>014-019>023-200600-
NORTHEAST ILLINOIS

CITY           SKY/WX    TMP DP  RH WIND       PRES   REMARKS
CHICAGO-OHARE  CLOUDY    29  22  75 CALM      30.25F
CHICAGO-MIDWAY CLOUDY    33  25  72 S5        30.26F WCI  29
AURORA         MOCLDY    26  21  81 CALM      30.27S HAZE
LANSING*       CLOUDY    31  26  82 CALM      30.26F
JOLIET*        CLOUDY    29  24  84 CALM      30.27S
WAUKEGAN       CLOUDY    27  20  75 CALM      30.26S
DUPAGE AIRPORT CLOUDY    26  22  84 CALM      30.25F
KANKAKEE*      CLOUDY    30  27  89 CALM      30.28S
WHEELING       CLOUDY    29  21  72 NE3       30.28S
MORRIS*        MOCLDY    26  25  94 CALM      30.26S
ROMEOVILLE*    CLOUDY    30  26  83 S3        30.26F
NORTHERLY ISL    N/A     32  24  73 S6          N/A  WCI  26
$$

LMZ740>746-200600-
SOUTHERN LAKE MICHIGAN

STATION/POSITION SKY/WX   TEMP    WIND        PRES    VSBY  WAVE
                          AIR SEA DIR/SP/G                  HT/PER
                          (F)     (DEG/KT/KT) (MB)    (MI)  (FT/S)
WAUKEGAN HARBOR            28        CALM       N/A
HARRISON CRIB              32     190/  8/ 10   N/A
BURNHAM HARBOR             32     190/  4/  6   N/A
CALUMET HARBOR             32     160/  3/  4 1023.6F
$$

ILZ025>027-034>036-040-047-049-050-058-095>099-200600-
WEST-CENTRAL ILLINOIS

CITY           SKY/WX    TMP DP  RH WIND       PRES   REMARKS
QUINCY         CLOUDY    31  27  85 SE6       30.26R WCI  25
GALESBURG*     CLOUDY    29  25  84 SE3       30.26S
MACOMB*        CLOUDY    30  26  84 SE3       30.28S
JACKSONVILLE*  CLOUDY    34  29  82 SE3       30.27S
PITTSFIELD*    CLOUDY    33  28  83 E3        30.27S
$$

ILZ028>032-037-038-041>044-048-051>054-059>061-200600-
CENTRAL ILLINOIS

CITY           SKY/WX    TMP DP  RH WIND       PRES   REMARKS
PONTIAC        MOCLDY    24  22  93 CALM      30.28S
BLOOMINGTON    MOCLDY    25  23  91 CALM      30.27R
DECATUR        CLOUDY    29  26  89 CALM      30.28R
PEORIA         PTCLDY    27  21  78 CALM      30.28S
LACON*         MOCLDY    23  21  91 CALM      30.27S
LINCOLN*       CLOUDY    31  27  86 CALM      30.29S
SPRINGFIELD    CLOUDY    31  24  75 E3        30.28R
TAYLORVILLE    CLOUDY    32  27  80 CALM      30.28R
$$

ILZ033-039-045-046-055>057-062-063-200600-
EAST-CENTRAL ILLINOIS

CITY           SKY/WX    TMP DP  RH WIND       PRES   REMARKS
CHAMPAIGN      MOCLDY    25  22  88 E5        30.27R FOG     WCI  19
DANVILLE*      CLOUDY    29  27  91 CALM      30.25S
RANTOUL*       MOCLDY    28  27  93 CALM      30.27S FOG
MATTOON        MOCLDY    28  23  81 CALM      30.26S
PARIS*         CLOUDY    31  28  88 CALM      30.28S
$$

ILZ079-100>102-200600-
SOUTHWEST ILLINOIS

CITY           SKY/WX    TMP DP  RH WIND       PRES   REMARKS
ALTON          CLOUDY    33  26  75 E3        30.27F
BELLEVILLE     CLOUDY    34  30  83 E1        30.27S
CAHOKIA*       CLOUDY    36  28  73 CALM      30.28R
SPARTA*        CLOUDY    34  28  80 CALM      30.28S
$$

ILZ064>066-069>071-074>076-080>082-084>086-088>090-092>094-200600-
SOUTH-CENTRAL ILLINOIS

CITY           SKY/WX    TMP DP  RH WIND       PRES   REMARKS
CARBONDALE     CLOUDY    34  27  75 SE7       30.28S WCI  28
CAIRO*         PTCLDY    35  31  83 N5        30.28S WCI  31
EFFINGHAM*     MOCLDY    28  25  87 CALM      30.29S
MARION         CLOUDY    34  30  86 E3        30.29S
MT. VERNON     CLOUDY    34  25  69 CALM      30.29R
CENTRALIA*     CLOUDY    33  25  73 CALM      30.28S
SALEM*         CLOUDY    34  26  72 CALM      30.28R
METROPOLIS*    CLOUDY    35  30  82 CALM      30.28R
$$

ILZ067-068-072-073-078-083-087-091-200600-
SOUTHEAST ILLINOIS

CITY           SKY/WX    TMP DP  RH WIND       PRES   REMARKS
LAWRENCEVILLE  CLOUDY    31  26  82 CALM      30.29R
FLORA*         CLOUDY    32  27  82 CALM      30.29S
FAIRFIELD*     CLOUDY    33  27  79 CALM      30.28R
HARRISBURG*    LGT SNOW  33  31  92 CALM      30.31R
ROBINSON*      CLOUDY    32  27  82 CALM      30.30S
CARMI*         CLOUDY    35  30  83 CALM      30.29R
$$

ABBREVIATIONS USED IN REMARKS
   TC - TEMPERATURE IN CELSIUS
  WCI - WIND CHILL INDEX
   HX - HEAT INDEX
  VSB - VISIBILITY
$$



USA.gov is the U.S. government's official web portal to all federal, state and local government web resources and services.